Back to catalog

STARLINK-32818

AliveCommunicationsVLEO
NORAD 63036·PAYLOAD·🇺🇸 United States

Launched Feb 18, 2025 from Cape Canaveral Space Force Station

Loading…

Next Passes (next 24 hours)

TLE

FreshSource: CelesTrak SupGP

Epoch: Sep 14, 2026, 21:12 UTC

1 63036C 25034H   26257.88381944 -.00022840  00000+0 -73462-3 0  2578
2 63036  53.1582  99.1380 0001334  88.4572   2.5766 15.31706644    13

Track STARLINK-32818 in real time with AllMySat

Download on the App Store